Total_Precipitation_Accumulation
0.04 0.03 0.03 0.04 0.03 0.02 0.00 0.00 0.00 0.00 0.00 0.00 0.00 0.00 0.00 0.00 0.00 0.01 0.01 0.01 0.02 0.04 0.08 0.15 0.19 0.21 0.24 0.24 0.23 0.21 0.18 0.17 0.18 0.18 0.18 0.19 0.19 0.19 0.19 0.21 0.22 0.23 0.24 0.25 0.26 0.26 0.23 0.17 0.17
0.04 0.03 0.05 0.06 0.03 0.01 0.00 0.00 0.00 0.00 0.00 0.00 0.00 0.00 0.00 0.00 0.00 0.00 0.00 0.01 0.01 0.02 0.05 0.11 0.19 0.22 0.25 0.25 0.24 0.22 0.20 0.19 0.18 0.18 0.19 0.20 0.19 0.19 0.20 0.20 0.20 0.20 0.22 0.24 0.23 0.22 0.21 0.17 0.16
0.05 0.06 0.08 0.06 0.02 0.00 0.00 0.00 0.00 0.00 0.00 0.00 0.00 0.00 0.00 0.00 0.00 0.01 0.01 0.01 0.01 0.01 0.04 0.10 0.20 0.24 0.27 0.28 0.27 0.24 0.23 0.22 0.21 0.21 0.21 0.21 0.22 0.23 0.21 0.18 0.17 0.16 0.16 0.17 0.18 0.20 0.20 0.19 0.16
0.08 0.12 0.12 0.07 0.01 0.00 0.00 0.00 0.00 0.00 0.00 0.00 0.00 0.00 0.00 0.00 0.00 0.01 0.01 0.01 0.01 0.02 0.04 0.11 0.20 0.26 0.29 0.31 0.30 0.27 0.26 0.26 0.25 0.24 0.24 0.26 0.28 0.27 0.24 0.20 0.17 0.14 0.12 0.14 0.15 0.19 0.23 0.19 0.16
0.12 0.16 0.13 0.06 0.01 0.00 0.00 0.00 0.00 0.00 0.00 0.00 0.00 0.00 0.00 0.00 0.00 0.01 0.01 0.02 0.03 0.04 0.06 0.12 0.20 0.28 0.31 0.33 0.32 0.31 0.31 0.31 0.30 0.29 0.30 0.31 0.31 0.28 0.25 0.22 0.18 0.15 0.12 0.11 0.12 0.15 0.23 0.22 0.21
0.16 0.17 0.11 0.04 0.01 0.00 0.00 0.00 0.00 0.00 0.00 0.00 0.00 0.00 0.00 0.00 0.00 0.00 0.00 0.01 0.01 0.02 0.04 0.10 0.21 0.28 0.32 0.36 0.37 0.37 0.38 0.39 0.38 0.36 0.37 0.37 0.36 0.33 0.29 0.27 0.23 0.19 0.15 0.13 0.11 0.11 0.16 0.19 0.22
0.16 0.15 0.08 0.03 0.01 0.00 0.00 0.00 0.00 0.00 0.00 0.00 0.00 0.00 0.00 0.00 0.00 0.00 0.01 0.01 0.02 0.04 0.07 0.12 0.21 0.29 0.35 0.41 0.43 0.45 0.47 0.48 0.45 0.43 0.42 0.44 0.42 0.40 0.36 0.31 0.26 0.21 0.19 0.17 0.14 0.10 0.10 0.14 0.18
0.19 0.19 0.09 0.03 0.02 0.01 0.00 0.00 0.00 0.01 0.00 0.00 0.00 0.00 0.00 0.01 0.01 0.01 0.02 0.03 0.05 0.07 0.10 0.15 0.23 0.28 0.34 0.42 0.48 0.52 0.54 0.54 0.56 0.55 0.48 0.47 0.49 0.49 0.47 0.38 0.32 0.27 0.24 0.20 0.18 0.14 0.10 0.08 0.08
0.24 0.27 0.11 0.03 0.02 0.02 0.01 0.01 0.01 0.01 0.01 0.01 0.00 0.00 0.01 0.02 0.02 0.03 0.05 0.08 0.11 0.13 0.15 0.19 0.27 0.34 0.37 0.41 0.47 0.58 0.65 0.66 0.68 0.68 0.60 0.55 0.54 0.50 0.46 0.40 0.36 0.33 0.27 0.21 0.20 0.17 0.14 0.11 0.06
0.29 0.23 0.08 0.02 0.02 0.03 0.03 0.03 0.03 0.04 0.02 0.01 0.01 0.01 0.02 0.03 0.05 0.06 0.08 0.10 0.13 0.15 0.18 0.22 0.29 0.37 0.44 0.49 0.54 0.60 0.67 0.71 0.69 0.60 0.57 0.56 0.52 0.48 0.44 0.43 0.43 0.39 0.34 0.29 0.26 0.21 0.15 0.11 0.07
0.22 0.15 0.06 0.03 0.03 0.04 0.06 0.06 0.05 0.06 0.05 0.03 0.03 0.02 0.04 0.05 0.06 0.08 0.10 0.12 0.13 0.15 0.19 0.26 0.33 0.42 0.49 0.53 0.56 0.60 0.64 0.68 0.66 0.56 0.50 0.47 0.49 0.47 0.47 0.43 0.42 0.42 0.41 0.40 0.34 0.28 0.21 0.17 0.16
0.16 0.10 0.07 0.05 0.05 0.07 0.07 0.08 0.07 0.06 0.06 0.05 0.05 0.04 0.05 0.08 0.09 0.10 0.11 0.13 0.16 0.20 0.24 0.29 0.37 0.45 0.52 0.56 0.57 0.58 0.61 0.61 0.59 0.54 0.51 0.48 0.44 0.41 0.41 0.40 0.36 0.34 0.35 0.37 0.37 0.31 0.27 0.21 0.17
0.14 0.09 0.07 0.07 0.08 0.09 0.10 0.11 0.09 0.05 0.05 0.06 0.07 0.07 0.07 0.09 0.11 0.13 0.15 0.16 0.18 0.23 0.28 0.32 0.40 0.47 0.53 0.60 0.63 0.61 0.60 0.57 0.56 0.54 0.52 0.48 0.42 0.38 0.39 0.38 0.38 0.34 0.29 0.27 0.26 0.22 0.19 0.17 0.15
0.14 0.12 0.09 0.09 0.10 0.12 0.15 0.13 0.12 0.06 0.05 0.08 0.09 0.10 0.08 0.09 0.13 0.16 0.19 0.20 0.20 0.24 0.30 0.35 0.42 0.49 0.56 0.59 0.61 0.61 0.61 0.61 0.62 0.59 0.53 0.50 0.49 0.41 0.40 0.40 0.38 0.36 0.31 0.25 0.22 0.19 0.16 0.12 0.09
0.18 0.20 0.16 0.11 0.10 0.11 0.20 0.22 0.11 0.06 0.07 0.09 0.09 0.11 0.11 0.09 0.11 0.14 0.19 0.22 0.21 0.25 0.32 0.39 0.43 0.53 0.60 0.59 0.63 0.65 0.63 0.64 0.66 0.62 0.57 0.54 0.52 0.51 0.45 0.41 0.39 0.37 0.35 0.30 0.26 0.23 0.18 0.16 0.12
0.28 0.36 0.28 0.15 0.11 0.12 0.25 0.26 0.09 0.06 0.09 0.11 0.11 0.11 0.11 0.10 0.09 0.12 0.17 0.24 0.25 0.28 0.33 0.40 0.47 0.53 0.61 0.63 0.64 0.69 0.71 0.67 0.68 0.72 0.66 0.60 0.57 0.56 0.56 0.50 0.43 0.37 0.40 0.40 0.35 0.30 0.24 0.19 0.16
0.42 0.39 0.27 0.17 0.15 0.18 0.26 0.23 0.09 0.08 0.12 0.12 0.13 0.11 0.11 0.11 0.10 0.10 0.15 0.22 0.28 0.29 0.34 0.40 0.49 0.51 0.59 0.70 0.69 0.69 0.75 0.77 0.76 0.81 0.80 0.70 0.63 0.59 0.60 0.59 0.53 0.45 0.43 0.41 0.37 0.31 0.27 0.22 0.18
0.40 0.29 0.22 0.18 0.17 0.21 0.23 0.18 0.11 0.10 0.12 0.13 0.13 0.11 0.11 0.12 0.09 0.10 0.15 0.20 0.29 0.33 0.37 0.43 0.51 0.54 0.61 0.77 0.86 0.79 0.80 0.83 0.84 0.84 0.80 0.77 0.72 0.62 0.58 0.62 0.60 0.53 0.46 0.41 0.36 0.31 0.26 0.22 0.19
0.26 0.31 0.28 0.18 0.17 0.23 0.23 0.16 0.11 0.09 0.10 0.11 0.10 0.09 0.09 0.10 0.09 0.10 0.15 0.20 0.27 0.36 0.41 0.47 0.52 0.58 0.68 0.77 0.89 0.85 0.80 0.83 0.83 0.81 0.79 0.73 0.73 0.69 0.62 0.57 0.57 0.56 0.49 0.40 0.35 0.33 0.29 0.25 0.22
0.34 0.38 0.30 0.22 0.17 0.27 0.26 0.17 0.10 0.09 0.09 0.09 0.07 0.07 0.08 0.08 0.08 0.10 0.15 0.20 0.25 0.33 0.38 0.44 0.52 0.57 0.65 0.70 0.73 0.81 0.78 0.80 0.85 0.82 0.82 0.76 0.69 0.68 0.67 0.59 0.53 0.51 0.48 0.44 0.35 0.30 0.29 0.26 0.22
0.40 0.34 0.25 0.24 0.23 0.29 0.34 0.26 0.11 0.08 0.07 0.07 0.07 0.06 0.08 0.10 0.08 0.08 0.14 0.20 0.24 0.31 0.37 0.40 0.48 0.56 0.63 0.76 0.83 0.89 1.01 0.99 0.99 0.97 0.89 0.80 0.73 0.65 0.62 0.59 0.54 0.48 0.44 0.42 0.37 0.29 0.26 0.25 0.19
0.44 0.23 0.22 0.26 0.41 0.47 0.41 0.45 0.14 0.10 0.09 0.08 0.08 0.08 0.09 0.09 0.08 0.08 0.12 0.20 0.22 0.28 0.38 0.44 0.47 0.56 0.61 0.80 0.94 0.88 0.95 0.94 0.87 0.85 0.87 0.84 0.76 0.69 0.62 0.57 0.52 0.50 0.44 0.39 0.35 0.32 0.28 0.27 0.25
0.34 0.21 0.25 0.33 0.46 0.55 0.41 0.46 0.21 0.09 0.09 0.07 0.07 0.07 0.08 0.09 0.09 0.08 0.09 0.13 0.20 0.26 0.35 0.45 0.52 0.60 0.65 0.74 0.93 0.93 0.84 0.81 0.80 0.85 0.87 0.88 0.84 0.77 0.69 0.61 0.54 0.49 0.44 0.39 0.34 0.31 0.30 0.30 0.31
0.32 0.38 0.44 0.49 0.74 0.93 0.37 0.36 0.25 0.17 0.17 0.11 0.07 0.06 0.07 0.08 0.09 0.08 0.07 0.10 0.19 0.27 0.34 0.44 0.54 0.61 0.66 0.67 0.79 0.94 0.87 0.81 0.80 0.85 0.90 0.90 0.89 0.83 0.76 0.67 0.59 0.51 0.45 0.40 0.35 0.30 0.29 0.29 0.28
0.52 0.81 1.16 1.18 1.22 0.77 0.17 0.24 0.26 0.17 0.14 0.15 0.10 0.06 0.06 0.06 0.08 0.09 0.09 0.10 0.16 0.25 0.32 0.40 0.52 0.59 0.65 0.65 0.69 0.79 0.89 0.86 0.79 0.74 0.78 0.85 0.87 0.81 0.75 0.71 0.63 0.54 0.47 0.43 0.40 0.35 0.30 0.27 0.28
0.55 0.74 0.97 0.89 0.58 0.23 0.10 0.21 0.21 0.13 0.09 0.10 0.07 0.04 0.04 0.04 0.05 0.08 0.10 0.11 0.15 0.19 0.26 0.35 0.44 0.56 0.66 0.69 0.68 0.72 0.81 0.93 0.85 0.76 0.71 0.74 0.77 0.71 0.64 0.63 0.61 0.54 0.47 0.45 0.45 0.43 0.37 0.31 0.29
0.52 0.55 0.48 0.61 0.45 0.29 0.19 0.16 0.13 0.06 0.05 0.06 0.05 0.04 0.04 0.04 0.05 0.06 0.08 0.11 0.14 0.19 0.22 0.31 0.37 0.48 0.61 0.72 0.74 0.72 0.75 0.85 0.87 0.78 0.72 0.69 0.69 0.68 0.66 0.63 0.61 0.56 0.52 0.49 0.49 0.47 0.42 0.37 0.34
0.44 0.51 0.63 0.91 0.76 0.40 0.21 0.17 0.19 0.12 0.09 0.08 0.07 0.06 0.05 0.04 0.05 0.07 0.08 0.11 0.14 0.18 0.20 0.26 0.33 0.40 0.50 0.65 0.79 0.78 0.74 0.75 0.82 0.82 0.77 0.69 0.66 0.66 0.68 0.69 0.66 0.61 0.55 0.52 0.52 0.50 0.44 0.42 0.39
0.54 0.68 0.87 0.89 0.62 0.44 0.26 0.23 0.24 0.17 0.14 0.13 0.10 0.09 0.07 0.06 0.06 0.07 0.09 0.12 0.14 0.18 0.22 0.28 0.33 0.38 0.43 0.52 0.68 0.78 0.76 0.78 0.82 0.86 0.82 0.74 0.65 0.60 0.61 0.63 0.65 0.66 0.60 0.53 0.54 0.50 0.48 0.47 0.42
0.47 0.61 0.76 0.90 0.62 0.32 0.27 0.22 0.18 0.14 0.13 0.13 0.11 0.09 0.07 0.05 0.05 0.06 0.07 0.12 0.15 0.18 0.22 0.28 0.35 0.37 0.38 0.43 0.56 0.67 0.73 0.76 0.82 0.81 0.85 0.86 0.78 0.62 0.53 0.55 0.59 0.63 0.62 0.57 0.55 0.52 0.49 0.49 0.47